Time,TemperatureF,DewpointF,PressureIn,WindDirection,WindDirectionDegrees,WindSpeedMPH,WindSpeedGustMPH,Humidity,HourlyPrecipIn,Conditions,Clouds,dailyrainin,SoftwareType,DateUTC
2013-03-22 00:02:00,61.0,36.5,29.83,SE,135,0.0,0.0,40,0.00,CLR,,0.00,WeatherDisplay:10.37,2013-03-22 05:02:00,
2013-03-22 00:07:00,61.0,37.7,29.83,SSE,158,1.2,2.9,42,0.00,CLR,,0.00,WeatherDisplay:10.37,2013-03-22 05:07:00,
2013-03-22 00:12:00,61.0,37.7,29.83,South,180,0.0,0.0,42,0.00,CLR,,0.00,WeatherDisplay:10.37,2013-03-22 05:12:00,
2013-03-22 00:17:00,61.0,37.7,29.83,SE,135,0.0,0.0,42,0.00,CLR,,0.00,WeatherDisplay:10.37,2013-03-22 05:17:00,
2013-03-22 00:22:00,61.0,37.7,29.83,SSE,158,0.0,0.0,42,0.00,CLR,,0.00,WeatherDisplay:10.37,2013-03-22 05:22:00,
2013-03-22 00:27:00,61.0,37.1,29.83,SSE,158,0.0,0.0,41,0.00,CLR,,0.00,WeatherDisplay:10.37,2013-03-22 05:27:00,
2013-03-22 00:32:00,61.0,37.1,29.83,South,180,0.0,0.0,41,0.00,CLR,,0.00,WeatherDisplay:10.37,2013-03-22 05:32:00,
2013-03-22 00:37:00,61.0,37.7,29.83,SSE,158,0.0,0.0,42,0.00,CLR,,0.00,WeatherDisplay:10.37,2013-03-22 05:37:00,
2013-03-22 00:42:00,61.0,37.7,29.83,SSE,158,0.0,0.0,42,0.00,CLR,,0.00,WeatherDisplay:10.37,2013-03-22 05:42:00,
2013-03-22 00:47:00,61.2,38.5,29.83,SE,135,0.0,0.0,43,0.00,CLR,,0.00,WeatherDisplay:10.37,2013-03-22 05:47:00,
2013-03-22 00:52:00,61.2,38.5,29.83,ESE,112,0.0,0.0,43,0.00,CLR,,0.00,WeatherDisplay:10.37,2013-03-22 05:52:00,
2013-03-22 00:57:00,61.2,38.5,29.83,SSE,158,0.0,0.0,43,0.00,CLR,,0.00,WeatherDisplay:10.37,2013-03-22 05:57:00,
2013-03-22 01:02:00,61.3,39.2,29.80,SE,135,5.8,5.8,44,0.00,CLR,,0.00,WeatherDisplay:10.37,2013-03-22 06:02:00,
2013-03-22 01:07:00,61.3,39.2,29.80,SSE,158,3.5,3.5,44,0.00,CLR,,0.00,WeatherDisplay:10.37,2013-03-22 06:07:00,
2013-03-22 01:13:00,61.3,39.2,29.80,SE,135,0.0,0.0,44,0.00,CLR,,0.00,WeatherDisplay:10.37,2013-03-22 06:13:00,
2013-03-22 01:18:00,61.5,40.0,29.80,SSE,158,3.5,3.5,45,0.00,CLR,,0.00,WeatherDisplay:10.37,2013-03-22 06:18:00,
2013-03-22 01:23:00,61.5,40.0,29.80,SSW,202,3.5,3.5,45,0.00,CLR,,0.00,WeatherDisplay:10.37,2013-03-22 06:23:00,
2013-03-22 01:28:00,61.5,40.0,29.80,SSE,158,0.0,0.0,45,0.00,CLR,,0.00,WeatherDisplay:10.37,2013-03-22 06:28:00,
2013-03-22 01:33:00,61.7,40.1,29.77,South,180,3.5,3.5,45,0.00,CLR,,0.00,WeatherDisplay:10.37,2013-03-22 06:33:00,
2013-03-22 01:38:00,61.7,40.1,29.77,SE,135,2.3,2.3,45,0.00,CLR,,0.00,WeatherDisplay:10.37,2013-03-22 06:38:00,
2013-03-22 01:43:00,61.9,40.9,29.77,South,180,4.6,4.6,46,0.00,CLR,,0.00,WeatherDisplay:10.37,2013-03-22 06:43:00,
2013-03-22 01:48:00,61.9,40.9,29.77,SE,135,4.6,4.6,46,0.00,CLR,,0.00,WeatherDisplay:10.37,2013-03-22 06:48:00,
2013-03-22 01:53:00,62.2,41.7,29.77,SSE,158,5.8,5.9,47,0.00,CLR,,0.00,WeatherDisplay:10.37,2013-03-22 06:53:00,
2013-03-22 01:58:00,62.2,41.7,29.77,South,180,6.9,6.9,47,0.00,CLR,,0.00,WeatherDisplay:10.37,2013-03-22 06:58:00,
2013-03-22 02:04:00,62.2,41.7,29.83,SSE,158,8.1,8.1,47,0.00,CLR,,0.00,WeatherDisplay:10.37,2013-03-22 07:04:00,
2013-03-22 02:09:00,62.2,41.7,29.83,South,180,0.0,0.0,47,0.00,CLR,,0.00,WeatherDisplay:10.37,2013-03-22 07:09:00,
2013-03-22 02:14:00,62.2,41.7,29.83,South,180,2.3,2.3,47,0.00,CLR,,0.00,WeatherDisplay:10.37,2013-03-22 07:14:00,
2013-03-22 02:19:00,62.2,41.7,29.80,South,180,3.5,3.5,47,0.00,CLR,,0.00,WeatherDisplay:10.37,2013-03-22 07:19:00,
2013-03-22 02:24:00,62.2,41.7,29.80,SSE,158,0.0,0.0,47,0.00,CLR,,0.00,WeatherDisplay:10.37,2013-03-22 07:24:00,
2013-03-22 02:29:00,62.2,41.7,29.80,SSW,202,3.5,3.5,47,0.00,CLR,,0.00,WeatherDisplay:10.37,2013-03-22 07:29:00,
2013-03-22 02:34:00,62.2,42.8,29.80,SSE,158,5.8,5.8,49,0.00,CLR,,0.00,WeatherDisplay:10.37,2013-03-22 07:34:00,
2013-03-22 02:39:00,62.4,43.0,29.80,SSE,158,3.5,3.5,49,0.00,CLR,,0.00,WeatherDisplay:10.37,2013-03-22 07:39:00,
2013-03-22 02:44:00,62.4,43.0,29.80,South,180,2.3,2.3,49,0.00,CLR,,0.00,WeatherDisplay:10.37,2013-03-22 07:44:00,
2013-03-22 02:49:00,62.6,43.2,29.80,SE,135,3.6,0.0,49,0.00,CLR,,0.00,WeatherDisplay:10.37,2013-03-22 07:49:00,
2013-03-22 02:54:00,62.6,44.2,29.80,SSE,158,0.0,0.0,51,0.00,CLR,,0.00,WeatherDisplay:10.37,2013-03-22 07:54:00,
2013-03-22 02:59:00,62.8,44.4,29.80,South,180,3.5,3.5,51,0.00,CLR,,0.00,WeatherDisplay:10.37,2013-03-22 07:59:00,
2013-03-22 03:04:00,62.8,43.9,29.80,SSE,158,2.3,2.3,50,0.00,CLR,,0.00,WeatherDisplay:10.37,2013-03-22 08:04:00,
2013-03-22 03:09:00,62.8,44.4,29.80,South,180,3.6,3.6,51,0.00,CLR,,0.00,WeatherDisplay:10.37,2013-03-22 08:09:00,
2013-03-22 03:14:00,63.0,44.5,29.80,South,180,1.2,0.0,51,0.00,CLR,,0.00,WeatherDisplay:10.37,2013-03-22 08:14:00,
2013-03-22 03:19:00,63.0,45.1,29.80,SSE,158,4.6,4.6,52,0.00,CLR,,0.00,WeatherDisplay:10.37,2013-03-22 08:19:00,
2013-03-22 03:24:00,63.0,45.6,29.80,South,180,3.5,3.5,53,0.00,CLR,,0.00,WeatherDisplay:10.37,2013-03-22 08:24:00,
2013-03-22 03:29:00,63.0,45.1,29.80,SSE,158,0.0,0.0,52,0.00,CLR,,0.00,WeatherDisplay:10.37,2013-03-22 08:29:00,
2013-03-22 03:34:00,63.1,46.2,29.77,SE,135,2.3,2.3,54,0.00,CLR,,0.00,WeatherDisplay:10.37,2013-03-22 08:34:00,
2013-03-22 03:39:00,63.1,46.2,29.77,SE,135,5.4,5.4,54,0.00,CLR,,0.00,WeatherDisplay:10.37,2013-03-22 08:39:00,
2013-03-22 03:44:00,63.3,46.9,29.77,South,180,5.8,5.8,55,0.00,CLR,,0.00,WeatherDisplay:10.37,2013-03-22 08:44:00,
2013-03-22 03:49:00,63.3,47.3,29.74,South,180,5.8,5.8,56,0.00,CLR,,0.00,WeatherDisplay:10.37,2013-03-22 08:49:00,
2013-03-22 03:54:00,63.5,47.0,29.74,South,180,4.6,4.6,55,0.00,CLR,,0.00,WeatherDisplay:10.37,2013-03-22 08:54:00,
2013-03-22 03:59:00,63.7,48.2,29.74,SE,135,5.8,5.8,57,0.00,CLR,,0.00,WeatherDisplay:10.37,2013-03-22 08:59:00,
2013-03-22 04:04:00,63.7,48.2,29.71,South,180,4.6,4.6,57,0.00,CLR,,0.00,WeatherDisplay:10.37,2013-03-22 09:04:00,
2013-03-22 04:09:00,63.9,48.8,29.71,SE,135,3.8,3.8,58,0.00,CLR,,0.00,WeatherDisplay:10.37,2013-03-22 09:09:00,
2013-03-22 04:14:00,64.0,49.4,29.71,South,180,5.8,5.8,59,0.00,CLR,,0.00,WeatherDisplay:10.37,2013-03-22 09:14:00,
2013-03-22 04:19:00,64.0,49.4,29.71,SSE,158,6.9,6.9,59,0.00,CLR,,0.00,WeatherDisplay:10.37,2013-03-22 09:19:00,
2013-03-22 04:24:00,64.2,49.6,29.71,South,180,5.8,5.8,59,0.00,CLR,,0.00,WeatherDisplay:10.37,2013-03-22 09:24:00,
2013-03-22 04:29:00,64.2,50.0,29.71,South,180,6.9,6.9,60,0.00,CLR,,0.00,WeatherDisplay:10.37,2013-03-22 09:29:00,
2013-03-22 04:34:00,64.4,49.8,29.74,SSW,202,4.6,4.6,59,0.00,CLR,,0.00,WeatherDisplay:10.37,2013-03-22 09:34:00,
2013-03-22 04:39:00,64.4,50.2,29.74,SSE,158,6.2,6.2,60,0.00,CLR,,0.00,WeatherDisplay:10.37,2013-03-22 09:39:00,
2013-03-22 04:44:00,64.4,50.2,29.74,SE,135,6.9,6.9,60,0.00,CLR,,0.00,WeatherDisplay:10.37,2013-03-22 09:44:00,
2013-03-22 04:49:00,64.4,50.2,29.74,SE,135,4.6,4.6,60,0.00,CLR,,0.00,WeatherDisplay:10.37,2013-03-22 09:49:00,
2013-03-22 04:54:00,64.4,49.8,29.74,SE,135,3.6,3.6,59,0.00,CLR,,0.00,WeatherDisplay:10.37,2013-03-22 09:54:00,
2013-03-22 04:59:00,64.4,50.7,29.74,South,180,6.9,6.9,61,0.00,CLR,,0.00,WeatherDisplay:10.37,2013-03-22 09:59:00,
2013-03-22 05:04:00,64.6,50.8,29.74,South,180,8.1,8.1,61,0.00,CLR,,0.00,WeatherDisplay:10.37,2013-03-22 10:04:00,
2013-03-22 05:09:00,64.4,50.2,29.74,South,180,3.5,3.5,60,0.00,CLR,,0.00,WeatherDisplay:10.37,2013-03-22 10:09:00,
2013-03-22 05:14:00,64.6,50.8,29.74,SSE,158,4.6,4.6,61,0.00,CLR,,0.00,WeatherDisplay:10.37,2013-03-22 10:14:00,
2013-03-22 05:19:00,64.6,50.8,29.74,South,180,8.1,8.1,61,0.00,CLR,,0.00,WeatherDisplay:10.37,2013-03-22 10:19:00,
2013-03-22 05:24:00,64.6,50.8,29.74,South,180,0.0,0.0,61,0.00,CLR,,0.00,WeatherDisplay:10.37,2013-03-22 10:24:00,
2013-03-22 05:29:00,64.6,50.8,29.74,South,180,6.9,6.9,61,0.00,CLR,,0.00,WeatherDisplay:10.37,2013-03-22 10:29:00,
2013-03-22 05:34:00,64.8,51.0,29.74,South,180,3.5,3.5,61,0.00,CLR,,0.00,WeatherDisplay:10.37,2013-03-22 10:34:00,
2013-03-22 05:40:00,64.8,51.0,29.74,South,180,4.6,0.0,61,0.00,CLR,,0.00,WeatherDisplay:10.37,2013-03-22 10:40:00,
2013-03-22 05:45:00,64.8,51.0,29.74,South,180,4.6,4.6,61,0.00,CLR,,0.00,WeatherDisplay:10.37,2013-03-22 10:45:00,
2013-03-22 05:50:00,64.8,51.0,29.74,SSE,158,3.5,3.5,61,0.00,CLR,,0.00,WeatherDisplay:10.37,2013-03-22 10:50:00,
2013-03-22 05:55:00,64.9,51.6,29.74,SSE,158,5.8,5.8,62,0.00,CLR,,0.00,WeatherDisplay:10.37,2013-03-22 10:55:00,
2013-03-22 06:00:00,64.9,51.6,29.74,SE,135,4.6,4.6,62,0.00,CLR,,0.00,WeatherDisplay:10.37,2013-03-22 11:00:00,
2013-03-22 06:05:00,64.9,51.6,29.74,SSE,158,4.6,4.6,62,0.00,CLR,,0.00,WeatherDisplay:10.37,2013-03-22 11:05:00,
2013-03-22 06:10:00,64.9,51.6,29.74,South,180,4.6,4.6,62,0.00,CLR,,0.00,WeatherDisplay:10.37,2013-03-22 11:10:00,
2013-03-22 06:15:00,64.9,51.6,29.74,South,180,6.9,6.9,62,0.00,CLR,,0.00,WeatherDisplay:10.37,2013-03-22 11:15:00,
2013-03-22 06:20:00,65.1,51.8,29.77,SSE,158,2.9,3.1,62,0.00,CLR,,0.00,WeatherDisplay:10.37,2013-03-22 11:20:00,
2013-03-22 06:25:00,65.1,52.2,29.77,SSE,158,3.5,3.5,63,0.00,CLR,,0.00,WeatherDisplay:10.37,2013-03-22 11:25:00,
2013-03-22 06:30:00,64.9,52.0,29.77,SSE,158,4.6,4.6,63,0.00,CLR,,0.00,WeatherDisplay:10.37,2013-03-22 11:30:00,
2013-03-22 06:35:00,64.9,52.0,29.74,SE,135,1.2,0.0,63,0.00,CLR,,0.00,WeatherDisplay:10.37,2013-03-22 11:35:00,
2013-03-22 06:40:00,64.8,52.3,29.74,SSW,202,0.0,0.0,64,0.00,CLR,,0.00,WeatherDisplay:10.37,2013-03-22 11:40:00,
2013-03-22 06:45:00,64.8,52.7,29.74,South,180,3.5,3.5,65,0.00,CLR,,0.00,WeatherDisplay:10.37,2013-03-22 11:45:00,
2013-03-22 06:50:00,64.8,52.7,29.77,SE,135,2.4,2.4,65,0.00,CLR,,0.00,WeatherDisplay:10.37,2013-03-22 11:50:00,
2013-03-22 06:55:00,64.6,53.4,29.77,South,180,1.2,0.0,67,0.00,CLR,,0.00,WeatherDisplay:10.37,2013-03-22 11:55:00,
2013-03-22 07:00:00,64.6,53.0,29.77,South,180,0.0,0.0,66,0.00,CLR,,0.00,WeatherDisplay:10.37,2013-03-22 12:00:00,
2013-03-22 07:05:00,64.6,53.8,29.77,South,180,2.3,2.9,68,0.00,CLR,,0.00,WeatherDisplay:10.37,2013-03-22 12:05:00,
2013-03-22 07:10:00,64.6,53.4,29.77,SSE,158,2.3,2.3,67,0.00,CLR,,0.00,WeatherDisplay:10.37,2013-03-22 12:10:00,
2013-03-22 07:15:00,64.6,53.8,29.77,SSE,158,0.0,0.0,68,0.00,CLR,,0.00,WeatherDisplay:10.37,2013-03-22 12:15:00,
2013-03-22 07:20:00,64.6,54.2,29.77,South,180,0.0,0.0,69,0.00,CLR,,0.00,WeatherDisplay:10.37,2013-03-22 12:20:00,
2013-03-22 07:25:00,64.8,54.7,29.77,SE,135,0.0,0.0,70,0.00,CLR,,0.00,WeatherDisplay:10.37,2013-03-22 12:25:00,
2013-03-22 07:30:00,64.8,55.5,29.77,South,180,5.8,5.8,72,0.00,CLR,,0.00,WeatherDisplay:10.37,2013-03-22 12:30:00,
2013-03-22 07:35:00,64.8,55.9,29.77,South,180,0.0,0.0,73,0.00,CLR,,0.00,WeatherDisplay:10.37,2013-03-22 12:35:00,
2013-03-22 07:40:00,64.9,56.5,29.77,South,180,5.8,5.8,74,0.00,CLR,,0.00,WeatherDisplay:10.37,2013-03-22 12:40:00,
2013-03-22 07:45:00,65.1,57.0,29.77,South,180,3.5,3.5,75,0.00,CLR,,0.00,WeatherDisplay:10.37,2013-03-22 12:45:00,
2013-03-22 07:50:00,65.1,57.0,29.77,SSE,158,4.6,4.6,75,0.00,CLR,,0.00,WeatherDisplay:10.37,2013-03-22 12:50:00,
2013-03-22 07:55:00,65.3,57.2,29.77,SE,135,4.6,4.6,75,0.00,CLR,,0.00,WeatherDisplay:10.37,2013-03-22 12:55:00,
2013-03-22 08:00:00,65.5,57.3,29.77,South,180,5.8,5.8,75,0.00,CLR,,0.00,WeatherDisplay:10.37,2013-03-22 13:00:00,
2013-03-22 08:05:00,65.5,57.0,29.77,SSE,158,2.3,2.3,74,0.00,CLR,,0.00,WeatherDisplay:10.37,2013-03-22 13:05:00,
2013-03-22 08:10:00,65.5,57.0,29.77,South,180,4.7,4.7,74,0.00,CLR,,0.00,WeatherDisplay:10.37,2013-03-22 13:10:00,
2013-03-22 08:15:00,65.5,56.6,29.77,SE,135,2.3,2.3,73,0.00,CLR,,0.00,WeatherDisplay:10.37,2013-03-22 13:15:00,
2013-03-22 08:20:00,65.7,56.8,29.77,SSE,158,5.8,5.8,73,0.00,CLR,,0.00,WeatherDisplay:10.37,2013-03-22 13:20:00,
2013-03-22 08:25:00,65.8,56.9,29.77,South,180,3.5,3.5,73,0.00,CLR,,0.00,WeatherDisplay:10.37,2013-03-22 13:25:00,
2013-03-22 08:30:00,66.0,57.1,29.77,SSE,158,2.3,2.3,73,0.00,CLR,,0.00,WeatherDisplay:10.37,2013-03-22 13:30:00,
2013-03-22 08:35:00,66.0,57.1,29.77,South,180,2.3,2.3,73,0.00,CLR,,0.00,WeatherDisplay:10.37,2013-03-22 13:35:00,
2013-03-22 08:40:00,66.4,57.5,29.77,SSE,158,2.3,2.4,73,0.00,CLR,,0.00,WeatherDisplay:10.37,2013-03-22 13:40:00,
2013-03-22 08:45:00,66.4,57.1,29.77,South,180,4.6,4.6,72,0.00,CLR,,0.00,WeatherDisplay:10.37,2013-03-22 13:45:00,
2013-03-22 08:50:00,66.6,56.9,29.77,SSW,202,8.1,8.1,71,0.00,CLR,,0.00,WeatherDisplay:10.37,2013-03-22 13:50:00,
2013-03-22 08:55:00,66.6,56.5,29.77,SE,135,5.8,5.8,70,0.00,CLR,,0.00,WeatherDisplay:10.37,2013-03-22 13:55:00,
2013-03-22 09:00:00,66.6,56.1,29.77,SE,135,4.6,4.6,69,0.00,CLR,,0.00,WeatherDisplay:10.37,2013-03-22 14:00:00,
2013-03-22 09:05:00,66.7,56.2,29.77,ESE,112,3.5,3.5,69,0.00,CLR,,0.00,WeatherDisplay:10.37,2013-03-22 14:05:00,
2013-03-22 09:10:00,66.7,55.8,29.77,South,180,4.6,4.6,68,0.00,CLR,,0.00,WeatherDisplay:10.37,2013-03-22 14:10:00,
2013-03-22 09:15:00,66.7,55.8,29.77,South,180,4.6,4.6,68,0.00,CLR,,0.00,WeatherDisplay:10.37,2013-03-22 14:15:00,
2013-03-22 09:20:00,66.7,55.8,29.80,SSE,158,3.5,3.5,68,0.00,CLR,,0.00,WeatherDisplay:10.37,2013-03-22 14:20:00,
2013-03-22 09:25:00,66.9,56.0,29.80,SE,135,2.3,2.3,68,0.00,CLR,,0.00,WeatherDisplay:10.37,2013-03-22 14:25:00,
2013-03-22 09:30:00,67.3,56.4,29.80,SE,135,0.0,0.0,68,0.00,CLR,,0.00,WeatherDisplay:10.37,2013-03-22 14:30:00,
2013-03-22 09:35:00,67.3,56.4,29.80,SSE,158,0.0,0.0,68,0.00,CLR,,0.00,WeatherDisplay:10.37,2013-03-22 14:35:00,
2013-03-22 09:40:00,67.6,56.3,29.80,South,180,0.0,0.0,67,0.00,CLR,,0.00,WeatherDisplay:10.37,2013-03-22 14:40:00,
2013-03-22 09:45:00,68.0,56.6,29.80,South,180,3.5,0.0,67,0.00,CLR,,0.00,WeatherDisplay:10.37,2013-03-22 14:45:00,
2013-03-22 09:50:00,68.4,56.6,29.80,South,180,0.0,0.0,66,0.00,CLR,,0.00,WeatherDisplay:10.37,2013-03-22 14:50:00,
2013-03-22 09:55:00,68.7,56.0,29.80,SSW,202,0.0,0.0,64,0.00,CLR,,0.00,WeatherDisplay:10.37,2013-03-22 14:55:00,
2013-03-22 10:00:00,68.5,54.6,29.80,SSE,158,3.5,0.0,61,0.00,CLR,,0.00,WeatherDisplay:10.37,2013-03-22 15:00:00,
2013-03-22 10:05:00,68.4,53.9,29.80,WSW,248,0.0,0.0,60,0.00,CLR,,0.00,WeatherDisplay:10.37,2013-03-22 15:05:00,
2013-03-22 10:10:00,68.7,54.3,29.80,SSW,202,0.0,0.0,60,0.00,CLR,,0.00,WeatherDisplay:10.37,2013-03-22 15:10:00,
2013-03-22 10:15:00,69.1,54.6,29.80,South,180,0.0,0.0,60,0.00,CLR,,0.00,WeatherDisplay:10.37,2013-03-22 15:15:00,
2013-03-22 10:20:00,69.1,54.1,29.80,SW,225,3.5,3.5,59,0.00,CLR,,0.00,WeatherDisplay:10.37,2013-03-22 15:20:00,
2013-03-22 10:25:00,69.4,54.0,29.80,South,180,0.0,0.0,58,0.00,CLR,,0.00,WeatherDisplay:10.37,2013-03-22 15:25:00,
2013-03-22 10:30:00,69.8,54.4,29.80,South,180,0.0,0.0,58,0.00,CLR,,0.00,WeatherDisplay:10.37,2013-03-22 15:30:00,
2013-03-22 10:35:00,70.3,54.4,29.77,SSE,158,0.0,0.0,57,0.00,CLR,,0.00,WeatherDisplay:10.37,2013-03-22 15:35:00,
2013-03-22 10:40:00,70.9,53.4,29.77,South,180,0.0,0.0,54,0.00,CLR,,0.00,WeatherDisplay:10.37,2013-03-22 15:40:00,
2013-03-22 10:45:00,70.9,52.4,29.77,SE,135,0.0,0.0,52,0.00,CLR,,0.00,WeatherDisplay:10.37,2013-03-22 15:45:00,
2013-03-22 10:50:00,72.0,52.8,29.77,SE,135,0.0,0.0,51,0.00,CLR,,0.00,WeatherDisplay:10.37,2013-03-22 15:50:00,
2013-03-22 10:55:00,73.2,52.9,29.77,South,180,0.0,0.0,49,0.00,CLR,,0.00,WeatherDisplay:10.37,2013-03-22 15:55:00,
2013-03-22 11:01:00,73.6,50.3,29.77,WNW,292,3.5,3.5,44,0.00,CLR,,0.00,WeatherDisplay:10.37,2013-03-22 16:01:00,
2013-03-22 11:06:00,74.1,48.9,29.74,South,180,11.5,11.5,41,0.00,CLR,,0.00,WeatherDisplay:10.37,2013-03-22 16:06:00,
2013-03-22 11:11:00,74.8,49.6,29.74,South,180,6.9,6.9,41,0.00,CLR,,0.00,WeatherDisplay:10.37,2013-03-22 16:11:00,
2013-03-22 11:16:00,74.7,47.4,29.74,South,180,4.6,4.6,38,0.00,CLR,,0.00,WeatherDisplay:10.37,2013-03-22 16:16:00,
2013-03-22 11:21:00,74.7,45.9,29.74,South,180,8.1,8.1,36,0.00,CLR,,0.00,WeatherDisplay:10.37,2013-03-22 16:21:00,
2013-03-22 11:26:00,75.4,47.3,29.74,South,180,3.5,3.5,37,0.00,CLR,,0.00,WeatherDisplay:10.37,2013-03-22 16:26:00,
2013-03-22 11:31:00,75.7,45.4,29.74,SW,225,6.9,6.9,34,0.00,CLR,,0.00,WeatherDisplay:10.37,2013-03-22 16:31:00,
2013-03-22 11:36:00,75.6,44.4,29.74,South,180,9.2,9.2,33,0.00,CLR,,0.00,WeatherDisplay:10.37,2013-03-22 16:36:00,
2013-03-22 11:41:00,76.3,45.8,29.74,SE,135,5.9,5.9,34,0.00,CLR,,0.00,WeatherDisplay:10.37,2013-03-22 16:41:00,
2013-03-22 11:46:00,76.3,44.2,29.71,SE,135,8.1,8.1,32,0.00,CLR,,0.00,WeatherDisplay:10.37,2013-03-22 16:46:00,
2013-03-22 11:51:00,77.2,45.0,29.71,SSW,202,4.6,4.6,32,0.00,CLR,,0.00,WeatherDisplay:10.37,2013-03-22 16:51:00,
2013-03-22 11:56:00,77.7,44.7,29.71,ESE,112,3.5,3.5,31,0.00,CLR,,0.00,WeatherDisplay:10.37,2013-03-22 16:56:00,
2013-03-22 12:01:00,77.5,44.5,29.71,WSW,248,3.5,3.5,31,0.00,CLR,,0.00,WeatherDisplay:10.37,2013-03-22 17:01:00,
2013-03-22 12:06:00,77.0,44.9,29.71,WSW,248,0.0,0.0,32,0.00,CLR,,0.00,WeatherDisplay:10.37,2013-03-22 17:06:00,
2013-03-22 12:11:00,76.8,43.9,29.71,South,180,2.3,3.1,31,0.00,CLR,,0.00,WeatherDisplay:10.37,2013-03-22 17:11:00,
2013-03-22 12:16:00,77.0,44.0,29.71,South,180,4.6,4.6,31,0.00,CLR,,0.00,WeatherDisplay:10.37,2013-03-22 17:16:00,
2013-03-22 12:21:00,78.4,44.4,29.71,South,180,4.6,4.6,30,0.00,CLR,,0.00,WeatherDisplay:10.37,2013-03-22 17:21:00,
2013-03-22 12:26:00,78.8,44.7,29.71,SSE,158,5.8,5.8,30,0.00,CLR,,0.00,WeatherDisplay:10.37,2013-03-22 17:26:00,
2013-03-22 12:32:00,80.1,44.9,29.68,ESE,112,5.8,5.8,29,0.00,CLR,,0.00,WeatherDisplay:10.37,2013-03-22 17:32:00,
2013-03-22 12:38:00,78.3,43.4,29.68,WSW,248,2.0,2.0,29,0.00,CLR,,0.00,WeatherDisplay:10.37,2013-03-22 17:38:00,
2013-03-22 12:43:00,81.1,43.0,29.68,SE,135,5.8,5.8,26,0.00,CLR,,0.00,WeatherDisplay:10.37,2013-03-22 17:43:00,
2013-03-22 12:48:00,82.9,44.5,29.68,SSE,158,1.2,1.2,26,0.00,CLR,,0.00,WeatherDisplay:10.37,2013-03-22 17:48:00,
2013-03-22 12:53:00,81.0,39.7,29.68,SE,135,6.2,6.2,23,0.00,CLR,,0.00,WeatherDisplay:10.37,2013-03-22 17:53:00,
2013-03-22 12:58:00,82.0,40.6,29.68,SE,135,4.6,4.6,23,0.00,CLR,,0.00,WeatherDisplay:10.37,2013-03-22 17:58:00,
2013-03-22 13:03:00,82.6,41.0,29.68,SE,135,5.8,5.8,23,0.00,CLR,,0.00,WeatherDisplay:10.37,2013-03-22 18:03:00,
2013-03-22 13:08:00,83.5,40.6,29.68,NNE,22,3.5,3.5,22,0.00,CLR,,0.00,WeatherDisplay:10.37,2013-03-22 18:08:00,
2013-03-22 13:13:00,84.4,40.2,29.68,SE,135,4.6,0.0,21,0.00,CLR,,0.00,WeatherDisplay:10.37,2013-03-22 18:13:00,
2013-03-22 13:18:00,80.8,37.2,29.65,South,180,6.9,6.9,21,0.00,CLR,,0.00,WeatherDisplay:10.37,2013-03-22 18:18:00,
2013-03-22 13:23:00,81.7,37.9,29.65,WSW,248,2.3,0.0,21,0.00,CLR,,0.00,WeatherDisplay:10.37,2013-03-22 18:23:00,
2013-03-22 13:28:00,82.0,37.0,29.65,SE,135,3.5,3.5,20,0.00,CLR,,0.00,WeatherDisplay:10.37,2013-03-22 18:28:00,
2013-03-22 13:33:00,82.9,39.0,29.62,SSW,202,3.5,3.5,21,0.00,CLR,,0.00,WeatherDisplay:10.37,2013-03-22 18:33:00,
2013-03-22 13:38:00,81.9,36.8,29.62,South,180,5.8,5.8,20,0.00,CLR,,0.00,WeatherDisplay:10.37,2013-03-22 18:38:00,
2013-03-22 13:43:00,82.4,37.3,29.62,SSW,202,4.6,4.6,20,0.00,CLR,,0.00,WeatherDisplay:10.37,2013-03-22 18:43:00,
2013-03-22 13:48:00,83.3,38.0,29.62,SSW,202,0.0,0.0,20,0.00,CLR,,0.00,WeatherDisplay:10.37,2013-03-22 18:48:00,
2013-03-22 13:53:00,82.9,37.7,29.62,SSE,158,4.6,4.6,20,0.00,CLR,,0.00,WeatherDisplay:10.37,2013-03-22 18:53:00,
2013-03-22 13:58:00,82.8,37.6,29.62,SW,225,3.5,0.0,20,0.00,CLR,,0.00,WeatherDisplay:10.37,2013-03-22 18:58:00,
2013-03-22 14:03:00,81.9,36.8,29.59,SE,135,4.6,4.6,20,0.00,CLR,,0.00,WeatherDisplay:10.37,2013-03-22 19:03:00,
2013-03-22 14:08:00,83.5,38.2,29.59,SW,225,0.0,0.0,20,0.00,CLR,,0.00,WeatherDisplay:10.37,2013-03-22 19:08:00,
2013-03-22 14:13:00,81.3,36.4,29.59,SSE,158,0.0,0.0,20,0.00,CLR,,0.00,WeatherDisplay:10.37,2013-03-22 19:13:00,
2013-03-22 14:18:00,80.1,36.6,29.59,SSE,158,12.7,12.7,21,0.00,CLR,,0.00,WeatherDisplay:10.37,2013-03-22 19:18:00,
2013-03-22 14:23:00,82.2,37.1,29.59,SSE,158,4.9,4.9,20,0.00,CLR,,0.00,WeatherDisplay:10.37,2013-03-22 19:23:00,
2013-03-22 14:28:00,81.9,36.8,29.59,SE,135,8.1,8.1,20,0.00,CLR,,0.00,WeatherDisplay:10.37,2013-03-22 19:28:00,
2013-03-22 14:33:00,79.9,36.4,29.59,SW,225,6.9,6.9,21,0.00,CLR,,0.00,WeatherDisplay:10.37,2013-03-22 19:33:00,
2013-03-22 14:38:00,79.9,36.4,29.59,SE,135,6.9,6.9,21,0.00,CLR,,0.00,WeatherDisplay:10.37,2013-03-22 19:38:00,
2013-03-22 14:43:00,80.4,36.9,29.59,ESE,112,4.6,4.6,21,0.00,CLR,,0.00,WeatherDisplay:10.37,2013-03-22 19:43:00,
2013-03-22 14:48:00,79.9,36.4,29.59,South,180,6.9,6.9,21,0.00,CLR,,0.00,WeatherDisplay:10.37,2013-03-22 19:48:00,
2013-03-22 14:53:00,80.4,36.9,29.59,SE,135,6.9,6.9,21,0.00,CLR,,0.00,WeatherDisplay:10.37,2013-03-22 19:53:00,
2013-03-22 14:58:00,81.1,37.5,29.59,SE,135,6.9,6.9,21,0.00,CLR,,0.00,WeatherDisplay:10.37,2013-03-22 19:58:00,
2013-03-22 15:03:00,79.7,37.5,29.59,South,180,6.9,6.9,22,0.00,CLR,,0.00,WeatherDisplay:10.37,2013-03-22 20:03:00,
2013-03-22 15:08:00,78.8,36.7,29.59,SE,135,8.1,8.1,22,0.00,CLR,,0.00,WeatherDisplay:10.37,2013-03-22 20:08:00,
2013-03-22 15:13:00,78.6,36.6,29.59,South,180,2.3,2.3,22,0.00,CLR,,0.00,WeatherDisplay:10.37,2013-03-22 20:13:00,
2013-03-22 15:18:00,78.8,37.9,29.59,South,180,8.1,8.1,23,0.00,CLR,,0.00,WeatherDisplay:10.37,2013-03-22 20:18:00,
2013-03-22 15:23:00,78.4,37.6,29.59,SE,135,9.2,9.2,23,0.00,CLR,,0.00,WeatherDisplay:10.37,2013-03-22 20:23:00,
2013-03-22 15:28:00,79.5,38.5,29.59,South,180,4.6,4.6,23,0.00,CLR,,0.00,WeatherDisplay:10.37,2013-03-22 20:28:00,
2013-03-22 15:33:00,79.0,38.0,29.59,South,180,10.4,10.4,23,0.00,CLR,,0.00,WeatherDisplay:10.37,2013-03-22 20:33:00,
2013-03-22 15:38:00,79.2,39.2,29.59,SE,135,6.9,6.9,24,0.00,CLR,,0.00,WeatherDisplay:10.37,2013-03-22 20:38:00,
2013-03-22 15:44:00,79.9,38.8,29.59,South,180,8.1,8.1,23,0.00,CLR,,0.00,WeatherDisplay:10.37,2013-03-22 20:44:00,
2013-03-22 15:49:00,79.2,38.2,29.59,South,180,5.8,5.8,23,0.00,CLR,,0.00,WeatherDisplay:10.37,2013-03-22 20:49:00,
2013-03-22 15:54:00,79.9,38.8,29.59,NW,315,1.2,2.6,23,0.00,CLR,,0.00,WeatherDisplay:10.37,2013-03-22 20:54:00,
2013-03-22 15:59:00,80.6,38.2,29.59,WSW,248,6.9,6.9,22,0.00,CLR,,0.00,WeatherDisplay:10.37,2013-03-22 20:59:00,
2013-03-22 16:04:00,80.2,37.9,29.59,South,180,2.3,2.6,22,0.00,CLR,,0.00,WeatherDisplay:10.37,2013-03-22 21:04:00,
2013-03-22 16:09:00,80.2,37.9,29.59,SE,135,4.9,4.9,22,0.00,CLR,,0.00,WeatherDisplay:10.37,2013-03-22 21:09:00,
2013-03-22 16:14:00,79.0,36.9,29.59,SE,135,6.9,6.9,22,0.00,CLR,,0.00,WeatherDisplay:10.37,2013-03-22 21:14:00,
2013-03-22 16:19:00,78.8,37.9,29.62,SE,135,5.8,5.8,23,0.00,CLR,,0.00,WeatherDisplay:10.37,2013-03-22 21:19:00,
2013-03-22 16:24:00,78.8,37.9,29.62,SE,135,11.5,11.5,23,0.00,CLR,,0.00,WeatherDisplay:10.37,2013-03-22 21:24:00,
2013-03-22 16:29:00,77.4,37.7,29.62,SSE,158,8.1,8.1,24,0.00,CLR,,0.00,WeatherDisplay:10.37,2013-03-22 21:29:00,
2013-03-22 16:34:00,77.2,38.6,29.62,SSE,158,8.1,8.1,25,0.00,CLR,,0.00,WeatherDisplay:10.37,2013-03-22 21:34:00,
2013-03-22 16:39:00,77.4,39.8,29.62,SSE,158,5.8,5.8,26,0.00,CLR,,0.00,WeatherDisplay:10.37,2013-03-22 21:39:00,
2013-03-22 16:44:00,77.9,40.2,29.62,SSE,158,5.8,5.8,26,0.00,CLR,,0.00,WeatherDisplay:10.37,2013-03-22 21:44:00,
2013-03-22 16:49:00,77.9,39.2,29.62,SE,135,9.2,9.2,25,0.00,CLR,,0.00,WeatherDisplay:10.37,2013-03-22 21:49:00,
2013-03-22 16:54:00,77.7,40.1,29.62,SSW,202,15.0,15.0,26,0.00,CLR,,0.00,WeatherDisplay:10.37,2013-03-22 21:54:00,
2013-03-22 16:59:00,77.7,40.1,29.62,South,180,9.2,9.2,26,0.00,CLR,,0.00,WeatherDisplay:10.37,2013-03-22 21:59:00,
2013-03-22 17:04:00,77.2,39.6,29.62,South,180,14.5,14.5,26,0.00,CLR,,0.00,WeatherDisplay:10.37,2013-03-22 22:04:00,
2013-03-22 17:09:00,77.0,40.4,29.62,South,180,5.8,5.8,27,0.00,CLR,,0.00,WeatherDisplay:10.37,2013-03-22 22:09:00,
2013-03-22 17:14:00,77.4,40.8,29.62,South,180,8.1,8.1,27,0.00,CLR,,0.00,WeatherDisplay:10.37,2013-03-22 22:14:00,
2013-03-22 17:19:00,77.9,40.2,29.59,SE,135,8.1,8.1,26,0.00,CLR,,0.00,WeatherDisplay:10.37,2013-03-22 22:19:00,
2013-03-22 17:24:00,77.0,39.5,29.59,South,180,11.5,11.5,26,0.00,CLR,,0.00,WeatherDisplay:10.37,2013-03-22 22:24:00,
2013-03-22 17:29:00,76.3,39.8,29.59,South,180,3.5,3.5,27,0.00,CLR,,0.00,WeatherDisplay:10.37,2013-03-22 22:29:00,
2013-03-22 17:34:00,76.3,40.8,29.62,SE,135,5.8,5.8,28,0.00,CLR,,0.00,WeatherDisplay:10.37,2013-03-22 22:34:00,
2013-03-22 17:39:00,76.6,41.1,29.62,SSW,202,4.6,4.6,28,0.00,CLR,,0.00,WeatherDisplay:10.37,2013-03-22 22:39:00,
2013-03-22 17:44:00,77.0,41.4,29.62,SE,135,9.2,9.2,28,0.00,CLR,,0.00,WeatherDisplay:10.37,2013-03-22 22:44:00,
2013-03-22 17:49:00,76.5,41.8,29.62,South,180,5.8,5.8,29,0.00,CLR,,0.00,WeatherDisplay:10.37,2013-03-22 22:49:00,
2013-03-22 17:54:00,75.7,41.2,29.62,South,180,9.2,9.2,29,0.00,CLR,,0.00,WeatherDisplay:10.37,2013-03-22 22:54:00,
2013-03-22 17:59:00,75.4,41.8,29.62,South,180,8.1,8.1,30,0.00,CLR,,0.00,WeatherDisplay:10.37,2013-03-22 22:59:00,
2013-03-22 18:04:00,75.6,41.9,29.62,SSE,158,0.0,0.0,30,0.00,CLR,,0.00,WeatherDisplay:10.37,2013-03-22 23:04:00,
2013-03-22 18:09:00,75.4,41.8,29.62,South,180,6.7,6.7,30,0.00,CLR,,0.00,WeatherDisplay:10.37,2013-03-22 23:09:00,
2013-03-22 18:14:00,75.0,41.5,29.62,South,180,5.8,5.8,30,0.00,CLR,,0.00,WeatherDisplay:10.37,2013-03-22 23:14:00,
2013-03-22 18:19:00,75.0,41.5,29.65,SSE,158,5.8,5.8,30,0.00,CLR,,0.00,WeatherDisplay:10.37,2013-03-22 23:19:00,
2013-03-22 18:24:00,75.0,41.5,29.65,South,180,5.8,5.8,30,0.00,CLR,,0.00,WeatherDisplay:10.37,2013-03-22 23:24:00,
2013-03-22 18:29:00,75.0,41.5,29.65,SE,135,4.3,4.3,30,0.00,CLR,,0.00,WeatherDisplay:10.37,2013-03-22 23:29:00,
2013-03-22 18:34:00,74.5,41.0,29.65,South,180,6.9,6.9,30,0.00,CLR,,0.00,WeatherDisplay:10.37,2013-03-22 23:34:00,
2013-03-22 18:39:00,74.3,41.7,29.65,South,180,1.2,0.0,31,0.00,CLR,,0.00,WeatherDisplay:10.37,2013-03-22 23:39:00,
2013-03-22 18:44:00,73.9,41.4,29.65,South,180,6.9,6.9,31,0.00,CLR,,0.00,WeatherDisplay:10.37,2013-03-22 23:44:00,
2013-03-22 18:49:00,73.8,41.2,29.65,SSW,202,2.3,2.3,31,0.00,CLR,,0.00,WeatherDisplay:10.37,2013-03-22 23:49:00,
2013-03-22 18:54:00,73.4,41.7,29.65,South,180,0.0,0.0,32,0.00,CLR,,0.00,WeatherDisplay:10.37,2013-03-22 23:54:00,
2013-03-22 18:59:00,73.2,41.6,29.65,South,180,3.5,3.5,32,0.00,CLR,,0.00,WeatherDisplay:10.37,2013-03-22 23:59:00,
2013-03-22 19:04:00,73.0,42.2,29.68,South,180,3.5,3.5,33,0.00,CLR,,0.00,WeatherDisplay:10.37,2013-03-23 00:04:00,
2013-03-22 19:09:00,72.9,42.8,29.68,South,180,0.0,0.0,34,0.00,CLR,,0.00,WeatherDisplay:10.37,2013-03-23 00:09:00,
2013-03-22 19:14:00,72.7,42.7,29.68,SSE,158,5.8,5.8,34,0.00,CLR,,0.00,WeatherDisplay:10.37,2013-03-23 00:14:00,
2013-03-22 19:19:00,72.5,44.0,29.68,SSE,158,5.8,5.8,36,0.00,CLR,,0.00,WeatherDisplay:10.37,2013-03-23 00:19:00,
2013-03-22 19:24:00,72.3,43.9,29.68,South,180,5.8,5.8,36,0.00,CLR,,0.00,WeatherDisplay:10.37,2013-03-23 00:24:00,
2013-03-22 19:29:00,72.1,45.1,29.68,SSW,202,5.8,5.8,38,0.00,CLR,,0.00,WeatherDisplay:10.37,2013-03-23 00:29:00,
2013-03-22 19:34:00,72.0,45.0,29.68,SE,135,4.6,4.6,38,0.00,CLR,,0.00,WeatherDisplay:10.37,2013-03-23 00:34:00,
2013-03-22 19:39:00,72.0,45.6,29.68,SSE,158,6.9,6.9,39,0.00,CLR,,0.00,WeatherDisplay:10.37,2013-03-23 00:39:00,
2013-03-22 19:44:00,72.0,45.6,29.68,South,180,2.9,2.9,39,0.00,CLR,,0.00,WeatherDisplay:10.37,2013-03-23 00:44:00,
2013-03-22 19:49:00,71.8,46.8,29.68,South,180,9.2,9.2,41,0.00,CLR,,0.00,WeatherDisplay:10.37,2013-03-23 00:49:00,
2013-03-22 19:54:00,71.6,46.6,29.68,SSE,158,5.8,5.8,41,0.00,CLR,,0.00,WeatherDisplay:10.37,2013-03-23 00:54:00,
2013-03-22 19:59:00,71.4,46.5,29.68,SSE,158,4.6,4.6,41,0.00,CLR,,0.00,WeatherDisplay:10.37,2013-03-23 00:59:00,
2013-03-22 20:04:00,71.2,47.0,29.68,SSE,158,8.1,8.1,42,0.00,CLR,,0.00,WeatherDisplay:10.37,2013-03-23 01:04:00,
2013-03-22 20:09:00,71.1,46.8,29.68,South,180,5.8,5.8,42,0.00,CLR,,0.00,WeatherDisplay:10.37,2013-03-23 01:09:00,
2013-03-22 20:14:00,70.9,47.3,29.68,SSE,158,5.8,5.8,43,0.00,CLR,,0.00,WeatherDisplay:10.37,2013-03-23 01:14:00,
2013-03-22 20:19:00,70.7,47.7,29.68,South,180,4.6,4.6,44,0.00,CLR,,0.00,WeatherDisplay:10.37,2013-03-23 01:19:00,
2013-03-22 20:24:00,70.3,47.4,29.68,SSW,202,3.5,3.5,44,0.00,CLR,,0.00,WeatherDisplay:10.37,2013-03-23 01:24:00,
2013-03-22 20:29:00,70.2,47.8,29.68,SSE,158,3.5,3.5,45,0.00,CLR,,0.00,WeatherDisplay:10.37,2013-03-23 01:29:00,
2013-03-22 20:34:00,70.0,47.7,29.71,SSE,158,2.3,2.3,45,0.00,CLR,,0.00,WeatherDisplay:10.37,2013-03-23 01:34:00,
2013-03-22 20:39:00,69.8,48.1,29.71,SSE,158,2.3,2.3,46,0.00,CLR,,0.00,WeatherDisplay:10.37,2013-03-23 01:39:00,
2013-03-22 20:44:00,69.6,47.9,29.71,South,180,4.6,4.6,46,0.00,CLR,,0.00,WeatherDisplay:10.37,2013-03-23 01:44:00,
2013-03-22 20:49:00,69.4,48.3,29.71,South,180,1.6,0.0,47,0.00,CLR,,0.00,WeatherDisplay:10.37,2013-03-23 01:49:00,
2013-03-22 20:54:00,69.3,48.7,29.71,SE,135,0.0,0.0,48,0.00,CLR,,0.00,WeatherDisplay:10.37,2013-03-23 01:54:00,
2013-03-22 20:59:00,69.1,48.6,29.71,South,180,0.0,0.0,48,0.00,CLR,,0.00,WeatherDisplay:10.37,2013-03-23 01:59:00,
2013-03-22 21:04:00,68.9,48.4,29.71,South,180,2.3,0.0,48,0.00,CLR,,0.00,WeatherDisplay:10.37,2013-03-23 02:04:00,
2013-03-22 21:09:00,68.7,48.2,29.71,South,180,0.0,0.0,48,0.00,CLR,,0.00,WeatherDisplay:10.37,2013-03-23 02:09:00,
2013-03-22 21:15:00,68.7,49.3,29.71,South,180,3.5,0.0,50,0.00,CLR,,0.00,WeatherDisplay:10.37,2013-03-23 02:15:00,
2013-03-22 21:20:00,68.5,50.2,29.74,SSE,158,0.0,0.0,52,0.00,CLR,,0.00,WeatherDisplay:10.37,2013-03-23 02:20:00,
2013-03-22 21:25:00,68.4,50.0,29.74,South,180,4.6,0.0,52,0.00,CLR,,0.00,WeatherDisplay:10.37,2013-03-23 02:25:00,
2013-03-22 21:30:00,68.4,51.1,29.74,SSE,158,0.0,0.0,54,0.00,CLR,,0.00,WeatherDisplay:10.37,2013-03-23 02:30:00,
2013-03-22 21:35:00,68.2,51.4,29.74,South,180,0.0,1.2,55,0.00,CLR,,0.00,WeatherDisplay:10.37,2013-03-23 02:35:00,
2013-03-22 21:40:00,68.0,50.7,29.74,South,180,0.0,0.0,54,0.00,CLR,,0.00,WeatherDisplay:10.37,2013-03-23 02:40:00,
2013-03-22 21:45:00,68.0,50.7,29.74,SSE,158,2.3,2.3,54,0.00,CLR,,0.00,WeatherDisplay:10.37,2013-03-23 02:45:00,
2013-03-22 21:50:00,67.8,51.1,29.74,South,180,0.0,0.0,55,0.00,CLR,,0.00,WeatherDisplay:10.37,2013-03-23 02:50:00,
2013-03-22 21:55:00,67.8,50.6,29.74,South,180,0.0,0.0,54,0.00,CLR,,0.00,WeatherDisplay:10.37,2013-03-23 02:55:00,
2013-03-22 22:00:00,67.6,50.9,29.74,South,180,0.0,0.0,55,0.00,CLR,,0.00,WeatherDisplay:10.37,2013-03-23 03:00:00,
2013-03-22 22:05:00,67.8,51.1,29.71,South,180,0.0,0.0,55,0.00,CLR,,0.00,WeatherDisplay:10.37,2013-03-23 03:05:00,
2013-03-22 22:10:00,67.8,52.0,29.71,South,180,0.0,0.0,57,0.00,CLR,,0.00,WeatherDisplay:10.37,2013-03-23 03:10:00,
2013-03-22 22:15:00,68.0,52.7,29.71,SSE,158,0.0,0.0,58,0.00,CLR,,0.00,WeatherDisplay:10.37,2013-03-23 03:15:00,
2013-03-22 22:20:00,67.8,53.0,29.74,SSE,158,0.0,0.0,59,0.00,CLR,,0.00,WeatherDisplay:10.37,2013-03-23 03:20:00,
2013-03-22 22:25:00,67.8,53.0,29.74,SSE,158,0.0,0.0,59,0.00,CLR,,0.00,WeatherDisplay:10.37,2013-03-23 03:25:00,
2013-03-22 22:30:00,67.6,52.8,29.74,SE,135,0.0,0.0,59,0.00,CLR,,0.00,WeatherDisplay:10.37,2013-03-23 03:30:00,